This is the latest recevied weather packets stored in our database for station/object CE3UOB-10. If no packets are shown the sender has not sent any weather packets the latest 1 day(s).
| Time | Temp. | Humidity | Pressure | Rain* | Wind** | Luminosity | Snow |
|---|---|---|---|---|---|---|---|
| 1777916929 | 17.22° C | 46% | 993.4 hPa | - | - | - | - |
| 1777916916 | 17.22° C | 46% | 993.4 hPa | - | - | - | - |
| 1777915116 | 16.67° C | 49% | 994 hPa | - | - | - | - |
| 1777913316 | 16.11° C | 46% | 994.4 hPa | - | - | - | - |
| 1777911516 | 15.56° C | 47% | 994.6 hPa | - | - | - | - |
| 1777909729 | 15° C | 48% | 994.9 hPa | - | - | - | - |
| 1777909716 | 15° C | 48% | 994.9 hPa | - | - | - | - |
| 1777907916 | 14.44° C | 52% | 995.3 hPa | - | - | - | - |
| 1777906115 | 12.22° C | 45% | 995.4 hPa | - | - | - | - |
| 1777904315 | 12.22° C | 52% | 995.5 hPa | - | - | - | - |
| 1777902516 | 11.11° C | 51% | 995.7 hPa | - | - | - | - |
| 1777900716 | 10° C | 52% | 995.8 hPa | - | - | - | - |
| 1777898916 | 9.44° C | 59% | 995.9 hPa | - | - | - | - |
| 1777897116 | 8.33° C | 55% | 995.8 hPa | - | - | - | - |
| 1777895315 | 8.33° C | 52% | 995.2 hPa | - | - | - | - |
| 1777893515 | 8.89° C | 52% | 995.4 hPa | - | - | - | - |
| 1777891721 | 7.78° C | 54% | 995.5 hPa | - | - | - | - |
| 1777891715 | 7.78° C | 54% | 995.5 hPa | - | - | - | - |
| 1777889915 | 8.89° C | 51% | 995.3 hPa | - | - | - | - |
| 1777888115 | 9.44° C | 50% | 995.1 hPa | - | - | - | - |
| 1777886321 | 9.44° C | 49% | 995.1 hPa | - | - | - | - |
| 1777886315 | 9.44° C | 49% | 995.1 hPa | - | - | - | - |
| 1777884514 | 10° C | 49% | 995 hPa | - | - | - | - |
| 1777882714 | 10° C | 49% | 994.9 hPa | - | - | - | - |
| 1777880922 | 10° C | 48% | 995.2 hPa | - | - | - | - |
* Rain since midnight (hover to see other rain measurements)
** Current wind speed in m/s (hover to see current wind gust speed)